Weather History for Eagle, AK

Change the Weather History Date:

Tuesday, March 5, 2013

  Actual Average (PABN) Record (PABN)
Temperature  
Mean Temperature -3 °F -  
Max Temperature 14 °F 13 °F 33 °F (2008)
Min Temperature -20 °F 1 °F -20 °F (1999)
Degree Days  
Heating Degree Days 68    
Moisture  
Dew Point -14 °F    
Average Humidity 69    
Maximum Humidity 80    
Minimum Humidity 54    
Precipitation  
Precipitation 0.00 in - - ()
Sea Level Pressure  
Sea Level Pressure 30.26 in    
Wind  
Wind Speed 0 mph (ENE)    
Max Wind Speed 4 mph    
Max Gust Speed -    
Visibility 10 miles    
Events      
Averages and records for this station are not official NWS values.
T = Trace of Precipitation, MM = Missing Value Source: NWS Daily Summary

Daily Weather History Graph

Daily Weather History Graph

Search for Another Location

Airport:

Trip Planner

Search our weather history database for the weather conditions in past years. The results will help you decide how hot, cold, wet, or windy it might be!

Date:

Astronomy

Mar. 05, 2013 Rise Set
Actual Time 7:17 AM AKST 5:55 PM AKST
Civil Twilight 6:29 AM AKST 6:44 PM AKST
Nautical Twilight 5:32 AM AKST 7:41 PM AKST
Astronomical Twilight 4:33 AM AKST 8:41 PM AKST
Moon 4:33 AM AKST (3/5) 9:48 AM AKST (3/5)
Length of Visible Light 12h 15m
Length of Day
10h 37m
Last Quarter, 39% of the Moon is Illuminated
Mar 5
Last Quarter
Mar 11
New
Mar 19
First Quarter
Mar 27
Full
Apr 2
Last Quarter

Hourly Weather History & Observations

Time (AKST) Temp. Windchill Dew Point Humidity Pressure Visibility Wind Dir Wind Speed Gust Speed Precip Events Conditions
12:53 AM -15.0 °F - -22.0 °F 71% 30.43 in 10.0 mi Calm Calm - N/A   Clear
1:53 AM -15.0 °F - -22.0 °F 71% 30.41 in 10.0 mi Calm Calm - N/A   Clear
3:53 AM -17.0 °F - -24.0 °F 70% 30.38 in 10.0 mi Calm Calm - N/A   Clear
4:53 AM -18.0 °F - -25.1 °F 70% 30.38 in 10.0 mi Calm Calm - N/A   Clear
5:53 AM -20.0 °F - -27.0 °F 70% 30.38 in 10.0 mi Calm Calm - N/A   Clear
6:53 AM -20.9 °F - -27.9 °F 70% 30.38 in 10.0 mi Calm Calm - N/A   Clear
7:53 AM -18.9 °F - -25.1 °F 74% 30.38 in 10.0 mi Calm Calm - N/A   Clear
8:53 AM -11.0 °F - -18.0 °F 71% 30.35 in 10.0 mi Calm Calm - N/A   Clear
9:53 AM -5.1 °F - -9.9 °F 80% 30.33 in 10.0 mi Calm Calm - N/A   Clear
10:53 AM -0.9 °F - -8.0 °F 72% 30.31 in 10.0 mi Calm Calm - N/A   Clear
11:53 AM 3.9 °F - -5.1 °F 66% 30.28 in 10.0 mi Calm Calm - N/A   Clear
12:53 PM 9.0 °F - -2.9 °F 59% 30.25 in 10.0 mi Calm Calm - N/A   Clear
1:53 PM 10.9 °F - -0.9 °F 59% 30.23 in 10.0 mi Calm Calm - N/A   Clear
2:53 PM 14.0 °F - -0.0 °F 54% 30.19 in 10.0 mi Calm Calm - N/A   Clear
3:53 PM 12.9 °F 6.9 °F -0.0 °F 56% 30.18 in 10.0 mi ENE 3.5 mph - N/A   Clear
4:53 PM 12.0 °F - -0.0 °F 59% 30.16 in 10.0 mi Calm Calm - N/A   Partly Cloudy
5:53 PM 3.0 °F - -5.1 °F 69% 30.17 in 10.0 mi Calm Calm - N/A   Scattered Clouds
6:53 PM -2.0 °F - -9.0 °F 72% 30.17 in 10.0 mi Calm Calm - N/A   Clear
7:53 PM -6.0 °F - -11.9 °F 75% 30.16 in 10.0 mi Calm Calm - N/A   Clear
8:53 PM -8.0 °F - -14.1 °F 75% 30.15 in 10.0 mi Calm Calm - N/A   Clear
9:53 PM -9.9 °F - -15.0 °F 78% 30.14 in 10.0 mi Calm Calm - N/A   Scattered Clouds
10:53 PM -11.9 °F - -18.0 °F 74% 30.13 in 10.0 mi Calm Calm - N/A   Clear
11:53 PM -13.0 °F - -20.0 °F 71% 30.12 in 10.0 mi Calm Calm - N/A   Clear